Theta_e
353 357 357 357 358 358 357 355 356 356 357 355 355 353 354 355 356 355 355 355 354 351 352 352 351 351 352 350 349 349 352 351 350 351 353 354 357 360 363 361 361 360 360 359 359 359 358 358 357 357 357 357 356 356 356 357 356 356 356 356 355 355 355 354 354 354 354 353 354 353 353 352 352 351 351 351 352 352 352 352 352 352 352 352 353
353 355 356 356 357 357 357 356 355 355 356 354 355 354 354 358 357 354 354 355 354 351 356 352 352 348 350 349 348 350 352 351 350 350 352 355 356 360 364 362 361 360 359 359 359 359 358 358 358 357 357 357 356 356 356 356 356 356 356 355 355 354 354 354 354 353 353 354 354 353 353 353 353 353 353 353 353 353 353 354 353 353 353 353 353
353 355 354 354 355 355 354 355 354 354 355 353 355 356 357 355 356 352 355 355 355 354 354 352 351 351 348 349 348 350 352 352 352 351 352 354 355 357 360 363 361 360 359 360 359 358 359 358 358 358 358 358 356 356 356 355 356 356 356 355 355 354 354 354 354 353 353 353 354 353 353 353 353 353 353 353 353 354 354 354 353 354 354 354 354
354 355 354 353 353 353 353 353 353 354 356 353 354 360 357 357 358 357 359 357 354 353 354 352 350 351 347 347 349 350 351 352 353 352 352 353 354 355 357 360 362 361 360 360 359 359 359 358 358 358 358 357 357 357 356 356 355 355 356 356 355 355 354 354 354 354 353 353 352 352 354 353 353 353 353 354 354 354 354 354 354 354 354 354 353
354 355 359 354 353 352 353 356 354 356 357 358 360 358 358 359 358 360 356 352 351 350 355 351 348 347 344 345 348 350 351 351 353 352 352 354 354 355 356 359 358 361 360 360 360 359 358 359 359 359 359 358 358 357 357 356 356 356 356 356 355 355 355 355 354 354 354 353 354 353 354 354 354 353 354 354 354 354 354 354 354 353 352 352 352
355 356 356 355 355 352 353 355 358 359 359 363 359 356 354 354 355 355 361 354 347 348 349 349 347 344 341 343 347 349 350 350 352 352 354 355 356 356 356 356 356 356 358 360 360 359 359 358 359 359 358 358 357 357 357 357 356 356 356 356 355 356 356 356 355 355 355 355 355 355 354 354 354 354 354 354 354 354 354 353 353 352 352 352 353
358 357 356 357 356 354 354 355 359 359 362 358 356 355 353 352 356 351 351 349 348 351 353 351 348 342 343 344 343 345 348 348 351 353 354 355 356 356 357 356 355 355 357 354 359 359 359 359 359 359 358 358 358 358 358 358 357 357 357 356 355 356 356 356 355 355 355 355 354 355 354 355 354 353 353 353 353 353 353 353 353 353 353 353 353
359 358 357 357 356 354 354 358 360 360 358 358 356 354 352 352 357 353 348 348 353 349 349 347 347 345 347 341 343 346 345 347 351 353 354 355 355 356 356 356 355 355 360 353 354 357 360 358 359 359 358 358 358 358 358 358 357 357 356 356 356 356 355 355 355 355 355 354 354 354 354 354 354 353 353 353 353 353 353 353 353 353 353 353 353
361 358 356 356 357 357 357 360 361 358 356 357 355 356 354 356 356 356 350 348 351 349 347 346 344 343 340 339 341 344 344 348 351 352 355 353 354 355 355 355 357 362 357 354 354 355 358 359 359 359 359 358 358 359 357 358 357 357 357 357 356 356 356 355 355 355 354 355 354 354 353 354 353 353 353 353 353 352 352 352 353 353 352 352 352
361 357 355 356 358 359 359 359 360 359 355 357 356 356 352 353 355 356 355 351 347 345 344 345 346 343 340 338 340 342 345 348 351 358 351 351 352 353 354 355 358 357 356 355 354 354 354 357 359 359 359 358 358 358 358 357 357 357 357 357 356 355 354 355 355 355 355 354 354 354 354 353 353 353 353 352 352 352 352 352 352 351 351 350 351
361 359 355 357 358 358 357 359 360 358 355 356 355 356 354 353 354 353 357 353 348 348 347 345 342 343 340 341 340 342 344 348 354 350 350 351 352 354 354 353 355 354 354 354 354 353 353 353 354 353 355 359 359 359 358 357 357 357 357 357 356 355 355 355 354 354 355 354 354 353 353 353 353 353 353 352 352 351 352 351 351 351 351 350 351
360 359 357 358 355 355 356 360 359 359 355 355 355 354 354 354 353 353 351 355 356 353 346 343 340 340 343 338 340 341 343 351 348 348 350 350 352 353 351 353 353 352 353 354 354 353 353 353 355 352 352 356 358 358 358 357 357 357 356 356 356 356 356 356 355 355 354 354 354 353 353 352 352 352 352 352 351 351 350 350 349 348 347 347 347
361 359 356 362 354 353 356 360 359 359 358 356 357 355 356 355 357 355 350 348 349 349 347 340 334 332 334 337 338 341 349 346 345 346 347 349 351 351 350 351 350 350 351 353 353 353 352 352 353 352 353 350 354 358 357 356 357 356 356 356 356 355 355 356 355 355 355 354 354 354 353 352 352 352 352 351 351 349 348 347 345 344 344 345 345
361 359 357 357 354 353 355 358 358 357 357 357 355 360 358 356 355 350 353 348 346 350 346 337 332 328 329 331 334 334 345 341 341 344 346 347 349 348 349 349 349 349 351 352 351 352 352 351 352 352 351 351 350 351 352 354 355 356 355 355 356 356 355 355 355 355 354 354 354 353 352 351 352 351 351 350 350 349 347 344 343 344 344 344 344
360 360 357 356 356 354 354 357 358 359 356 355 356 354 353 355 353 350 346 349 350 351 346 335 330 335 333 331 325 325 332 331 334 340 343 345 346 346 349 347 348 348 350 350 350 350 351 350 349 350 351 350 350 350 351 356 353 356 356 357 355 355 355 355 355 354 353 354 354 352 352 351 351 350 350 349 348 346 345 343 343 344 344 344 344
359 360 359 357 355 355 356 356 358 359 356 356 355 353 353 353 353 352 347 343 345 345 350 343 339 334 327 325 325 321 318 320 326 334 339 342 343 345 348 347 347 347 348 348 349 349 350 349 348 349 350 350 351 350 351 349 356 358 357 356 356 357 355 354 354 353 353 353 353 352 351 351 350 349 347 347 345 343 344 344 342 342 342 344 343
359 359 359 357 356 355 358 357 358 360 358 356 356 356 355 355 354 352 348 345 342 342 345 345 340 337 335 327 322 319 318 319 327 328 334 335 339 343 347 345 345 346 347 347 348 348 349 349 348 348 349 349 350 350 350 353 353 356 355 356 356 356 357 353 353 353 353 354 353 352 350 349 347 345 345 343 343 343 343 342 343 341 343 343 342
359 359 359 358 356 356 357 358 358 360 359 358 358 357 356 355 355 353 350 347 344 340 338 348 341 347 338 332 326 321 323 326 323 321 333 341 335 339 342 343 345 346 345 345 346 346 349 348 348 349 350 350 350 350 350 350 353 351 349 352 356 355 357 355 353 353 354 354 352 350 349 347 344 344 344 343 342 342 341 342 342 342 342 343 343
359 359 359 359 357 356 356 359 359 359 362 358 357 358 358 357 357 354 352 354 346 338 338 339 338 339 344 342 344 343 332 323 319 322 323 328 331 332 335 338 342 345 344 343 345 344 346 348 348 349 349 350 350 350 349 349 354 352 356 354 355 355 354 353 352 352 350 348 347 347 346 345 344 343 343 343 343 342 343 342 342 343 343 344 344
358 358 359 359 358 357 357 358 358 359 362 359 358 358 359 359 358 356 354 353 350 342 337 337 334 332 339 336 340 345 337 333 328 327 324 323 324 329 331 333 338 342 343 341 342 342 343 345 347 347 347 348 349 349 348 347 348 350 352 354 355 354 353 352 349 347 345 345 344 344 344 344 343 343 344 344 345 344 343 344 344 344 345 345 344
358 358 358 358 360 358 358 358 358 359 363 361 360 360 359 358 356 354 353 352 350 346 338 335 332 330 331 332 333 333 334 336 335 333 327 322 322 323 325 330 332 333 336 339 340 341 343 345 346 347 346 347 347 347 347 347 347 347 353 355 354 352 350 350 349 345 345 344 344 344 344 344 344 344 344 345 346 346 346 345 345 345 345 345 345
356 357 357 358 358 359 359 358 358 360 362 362 361 359 358 358 358 356 354 353 350 348 340 335 334 331 331 330 330 333 328 328 330 329 328 326 323 323 324 325 324 327 331 334 338 339 341 342 344 345 344 344 345 345 345 347 347 347 350 354 354 350 348 349 349 346 346 345 345 345 345 345 345 346 346 346 346 347 346 345 345 346 346 346 345
355 356 357 358 357 359 360 360 359 361 362 360 360 360 358 357 358 356 354 352 349 346 347 337 337 334 329 329 329 331 328 326 326 329 327 324 324 325 325 326 326 325 328 331 337 338 339 339 340 342 342 341 341 343 344 346 351 350 352 354 352 350 349 349 350 348 347 348 346 347 348 348 348 348 348 348 348 348 348 347 347 347 347 346 346
353 354 356 357 357 358 360 360 360 360 360 360 360 360 360 359 357 355 354 351 349 345 344 339 341 336 331 332 330 334 333 329 330 331 330 326 326 324 325 325 327 326 332 330 336 336 337 337 339 340 340 339 339 341 343 345 348 352 353 354 350 349 349 349 350 350 349 349 348 348 348 348 348 347 347 347 348 348 348 347 347 347 347 347 346
352 352 354 356 356 356 358 359 360 361 361 360 359 360 359 359 357 355 354 350 349 343 342 340 341 338 333 336 332 338 336 335 336 334 332 330 327 323 328 330 323 324 328 330 330 334 336 336 337 338 337 337 338 339 341 343 344 352 355 354 350 350 349 350 350 349 349 348 348 348 348 349 349 349 349 349 348 348 348 348 348 348 349 348 347
352 352 354 356 356 357 358 359 360 361 361 360 359 359 358 358 357 354 353 351 350 343 342 340 339 340 338 337 334 335 336 338 336 336 336 333 327 326 327 329 326 324 327 329 330 331 331 334 336 337 336 336 337 337 338 339 340 350 356 350 349 348 349 349 350 348 347 348 347 348 347 348 350 349 349 349 350 349 349 349 349 349 348 347 347
352 354 355 355 356 356 357 358 359 360 361 360 360 359 358 358 357 355 354 352 351 346 342 342 338 339 339 337 336 334 334 336 336 336 338 335 332 330 328 326 325 326 326 326 327 329 330 332 335 335 336 337 337 336 336 336 339 345 355 348 344 347 346 347 348 347 346 346 347 346 346 346 347 348 348 348 349 349 348 348 348 348 348 348 349
353 354 354 355 356 355 357 358 358 359 360 360 359 358 357 356 356 355 353 354 352 347 344 344 340 337 339 339 336 335 334 335 336 335 334 335 334 333 331 327 324 320 322 323 326 327 330 329 332 334 335 337 337 338 340 340 335 344 353 342 334 339 345 344 345 344 344 343 343 342 342 343 343 344 345 348 348 347 348 348 348 349 349 350 349
354 355 354 354 355 355 356 357 358 359 359 359 359 357 357 356 355 354 353 353 353 348 345 344 343 339 337 339 338 336 334 335 336 336 334 335 334 334 332 329 327 323 321 320 323 325 329 331 328 331 334 336 337 338 339 337 338 340 340 338 329 329 337 341 341 341 341 340 339 339 339 340 340 341 343 345 347 348 349 348 348 349 349 349 348
355 356 355 354 354 359 355 356 358 359 359 359 359 357 356 356 355 355 355 354 353 349 346 345 344 342 339 338 339 337 338 339 339 340 335 334 334 334 333 331 330 327 323 321 322 325 326 330 330 328 332 335 337 337 338 338 342 342 338 339 329 327 332 337 338 338 338 338 337 336 337 338 339 340 341 342 345 347 347 348 348 348 348 348 347
356 355 355 354 354 355 356 356 357 358 359 358 358 358 356 355 356 354 354 354 352 350 347 346 344 344 340 337 337 338 338 339 340 341 342 335 336 333 333 332 332 330 327 324 319 324 329 328 330 331 331 334 337 337 338 339 342 343 339 339 335 334 334 334 336 336 335 335 334 334 334 335 336 338 339 340 341 343 344 345 347 347 347 346 346
355 356 356 355 355 354 356 356 357 357 358 359 358 357 356 355 355 355 354 353 352 351 348 347 346 344 342 339 337 337 338 338 340 340 340 340 337 337 335 333 332 331 331 327 324 325 330 330 330 331 332 333 336 336 336 338 341 347 341 340 339 341 336 332 336 335 334 333 333 333 332 332 333 335 337 339 340 342 344 343 344 345 344 344 344
355 355 356 356 355 355 355 356 356 357 357 358 358 357 356 355 354 355 354 353 352 351 349 347 346 345 344 341 339 338 337 337 338 339 340 341 339 338 338 336 333 333 331 330 327 327 330 333 334 334 336 333 333 336 336 336 337 339 344 340 339 338 337 336 334 337 335 332 332 331 332 332 332 333 335 338 339 341 343 344 342 341 340 340 340
356 355 355 356 356 356 355 355 356 357 357 357 358 357 356 355 355 355 355 353 352 351 349 347 346 346 345 343 341 339 338 337 337 338 339 340 341 337 336 337 335 335 334 331 329 329 328 329 332 335 334 334 331 335 335 335 335 338 340 341 340 339 337 337 338 338 337 334 331 330 330 331 331 332 334 336 337 338 339 339 339 336 336 336 335
356 356 356 355 356 356 355 355 355 356 357 357 358 357 356 355 355 355 355 354 353 351 349 348 347 346 345 344 343 342 341 338 337 338 339 339 341 339 337 337 335 335 336 334 331 329 328 329 331 333 334 334 332 333 335 336 337 338 339 339 339 340 339 337 337 339 339 336 333 331 330 330 331 332 332 333 334 334 334 334 333 333 332 331 330
356 357 357 356 355 354 355 355 355 355 356 357 357 357 357 356 355 355 355 355 354 353 351 349 348 346 345 344 344 343 342 339 338 338 338 338 339 340 338 337 337 335 336 336 333 331 330 329 329 332 334 332 333 333 336 336 335 335 338 339 339 339 339 340 338 338 339 337 335 334 332 331 330 330 330 331 331 329 329 329 328 330 329 328 328
357 356 356 357 356 355 354 354 355 355 355 356 356 357 358 357 356 356 355 355 355 354 353 352 352 347 346 345 345 344 342 340 340 338 338 337 338 339 339 338 337 337 337 337 335 333 330 329 330 331 334 334 334 334 335 334 335 335 336 337 337 337 338 340 341 341 339 336 336 334 333 331 331 331 330 329 329 328 327 327 326 327 327 326 325
356 357 356 355 356 355 355 354 355 355 356 356 356 356 357 358 357 357 356 356 356 355 354 353 352 349 347 346 346 345 343 341 341 341 339 338 338 337 338 338 337 337 336 336 337 335 332 332 331 331 329 334 334 334 335 335 334 334 335 337 337 337 336 336 339 342 342 341 338 337 334 332 331 330 330 330 329 327 326 326 325 324 324 323 320
353 355 356 355 355 355 356 355 354 355 356 356 356 357 357 358 358 357 357 356 356 356 355 354 353 352 349 347 347 346 344 343 342 341 341 340 339 338 338 338 338 337 336 335 336 335 335 333 332 332 332 333 334 334 334 336 335 335 333 333 335 338 336 335 335 338 341 341 339 338 337 336 335 332 326 325 326 326 326 325 324 323 322 320 318
351 352 355 356 355 354 355 355 355 355 355 355 356 357 357 357 358 358 357 356 355 355 355 355 354 353 351 349 348 347 346 345 344 343 342 341 340 339 339 338 338 337 336 336 335 335 335 334 334 333 333 333 330 334 334 333 333 332 334 334 332 333 335 336 335 335 336 338 338 338 337 336 334 332 327 326 326 327 326 326 326 326 324 321 319
352 352 353 355 355 354 353 354 355 356 354 354 356 357 356 356 357 357 357 357 356 354 354 354 355 354 353 352 350 348 349 346 340 340 340 339 342 339 340 339 338 337 336 336 336 334 334 334 333 334 332 332 333 333 333 333 333 333 334 333 332 333 334 335 336 337 336 335 336 336 335 335 333 332 331 329 328 328 328 328 328 330 327 321 320
351 352 352 353 354 355 354 353 353 355 355 356 348 337 342 356 356 357 357 357 356 355 354 353 353 354 354 353 353 346 340 338 336 334 333 333 334 340 341 340 339 338 337 336 335 335 334 333 333 333 332 331 332 333 333 334 336 334 332 332 331 332 328 332 334 336 338 337 334 333 335 335 333 332 330 329 330 333 329 328 328 328 328 325 323
351 351 352 351 352 354 354 353 352 352 354 355 338 332 333 338 353 356 355 355 356 355 354 353 352 353 354 354 354 351 343 338 340 333 332 331 331 332 335 337 337 341 338 337 336 336 335 334 334 334 333 332 333 334 334 335 335 335 334 333 333 331 330 328 328 332 338 338 335 334 334 335 333 331 330 329 330 331 331 329 329 328 325 325 324
352 352 351 351 352 353 354 354 353 353 353 340 334 331 331 332 338 355 356 355 355 355 354 353 353 352 352 353 354 354 352 350 348 344 336 330 329 330 331 332 333 334 336 339 338 336 336 334 334 334 334 333 334 334 334 334 334 335 335 334 333 332 331 330 330 329 333 340 336 333 333 334 333 332 331 331 331 331 332 329 328 327 325 324 324
351 351 351 351 351 352 353 353 353 354 353 338 331 329 330 330 331 342 356 355 354 354 354 354 353 352 352 352 352 354 355 344 346 349 347 343 330 327 328 329 330 330 331 332 334 340 339 337 335 334 335 335 334 335 336 336 336 333 334 333 333 332 333 332 332 333 332 339 336 333 332 334 333 332 331 332 332 333 333 330 328 327 325 323 323
349 351 351 351 351 351 351 352 353 354 354 340 329 327 327 327 329 334 354 355 355 355 355 355 355 354 353 351 351 351 353 353 351 349 349 347 346 341 336 334 336 336 330 328 328 330 336 339 337 335 337 337 335 336 339 338 335 333 333 333 334 333 332 332 335 335 334 340 336 333 330 332 334 333 331 333 334 334 334 331 327 325 325 323 323
348 349 350 350 351 351 351 351 352 353 354 337 327 324 324 324 327 329 352 355 355 354 355 355 355 355 355 354 353 352 352 353 353 350 350 349 348 346 343 341 339 339 340 339 338 338 338 339 340 339 339 339 338 339 338 339 339 337 336 335 335 335 336 336 335 335 332 340 338 334 330 333 335 333 333 334 334 335 336 330 326 325 325 322 322
350 350 351 352 351 351 351 351 351 351 354 333 326 323 322 323 325 338 349 353 354 354 354 354 355 356 356 355 354 353 353 353 345 334 339 350 349 347 345 344 343 342 341 336 335 336 340 341 341 341 341 341 336 341 341 339 339 339 340 339 337 334 333 332 331 333 334 337 339 335 331 330 334 334 334 335 333 332 334 335 327 324 324 322 322
349 349 349 351 353 352 352 352 350 351 353 337 324 321 320 321 323 343 348 351 353 353 354 354 355 355 356 356 355 355 354 354 343 332 330 334 348 348 347 346 345 344 344 345 333 328 328 328 328 330 330 330 329 327 327 329 336 338 338 335 333 334 332 330 330 330 332 335 339 338 334 331 332 335 333 333 333 332 331 332 332 324 323 322 321
348 349 350 350 352 353 353 352 352 351 351 341 321 319 319 319 327 345 348 350 351 352 353 354 354 354 354 348 356 355 354 354 338 330 329 332 345 348 348 347 345 344 345 346 345 341 327 325 326 327 328 328 329 328 326 326 326 330 338 333 335 334 332 331 329 330 332 334 337 341 334 333 332 334 332 325 328 328 331 329 328 326 323 319 317
350 350 350 350 350 352 353 354 346 350 352 343 318 318 317 317 327 346 349 350 350 351 352 352 353 354 353 350 344 344 349 347 333 329 326 331 346 348 349 348 346 346 347 347 345 344 342 339 337 336 336 335 337 336 336 328 327 340 338 338 337 335 332 332 331 330 329 331 336 342 334 332 330 331 332 321 322 320 323 327 326 323 323 324 323
Wind_Speed
4 4 4 4 4 4 4 4 3 3 2 2 2 2 2 2 3 3 4 3 3 3 3 4 4 5 5 4 4 3 3 4 5 5 5 4 5 8 13 12 11 11 11 10 10 10 9 9 9 9 8 9 9 9 9 9 9 8 8 8 7 7 7 6 6 5 5 4 3 3 2 1 0 1 2 2 3 3 3 4 4 4 4 5 5
5 4 5 4 4 3 3 3 4 3 2 3 3 3 3 3 3 3 2 2 2 3 3 3 3 4 5 6 5 5 4 4 4 4 4 4 4 6 14 12 11 11 10 10 10 10 9 10 9 9 9 9 9 9 9 9 9 8 8 7 7 6 6 5 5 5 4 5 3 2 2 2 3 3 3 3 4 4 5 5 6 5 5 5 6
5 5 4 4 4 4 4 3 3 4 3 4 2 3 3 4 4 4 3 2 2 3 3 3 3 4 5 7 7 4 3 4 4 4 4 4 4 4 7 13 11 10 10 10 10 9 9 10 10 10 10 9 10 10 9 9 9 8 8 7 7 6 6 5 5 4 4 4 5 4 3 2 2 3 3 4 4 4 5 5 5 6 5 5 6
6 5 5 5 5 5 4 3 4 4 4 4 3 3 3 2 3 2 2 1 2 1 0 1 1 3 5 8 7 5 5 5 6 5 4 4 4 3 4 6 12 11 10 10 10 11 10 10 10 10 10 10 9 9 9 8 8 8 8 8 7 6 6 6 5 5 4 4 3 3 4 3 4 3 3 4 4 4 5 5 5 5 6 6 6
6 7 6 5 5 5 4 4 4 4 4 3 3 2 2 2 1 0 0 1 1 2 2 1 1 1 5 6 6 7 5 5 5 6 6 5 4 4 4 4 4 10 11 10 10 10 11 10 10 10 10 10 9 9 9 9 8 8 7 7 7 6 6 6 5 5 4 4 4 5 5 5 5 3 4 4 5 5 5 5 4 5 6 7 7
7 6 6 5 5 5 5 5 4 4 4 4 4 3 3 3 2 1 2 1 2 2 3 4 2 3 4 6 7 7 6 5 5 4 5 5 4 4 4 4 5 4 5 10 10 10 11 11 11 10 10 10 10 10 10 9 9 8 8 7 7 7 7 6 6 5 4 5 4 5 5 5 5 4 4 4 4 4 5 5 5 5 6 6 6
6 7 6 6 5 5 5 6 4 2 4 4 4 2 3 3 3 2 1 1 2 2 2 3 3 0 6 6 7 5 5 5 5 5 5 5 5 4 4 4 4 4 4 3 8 10 10 11 11 10 11 10 10 10 10 10 10 9 8 8 8 7 7 6 5 5 5 5 5 5 5 5 5 5 5 6 5 6 5 5 6 6 6 6 6
5 6 6 5 6 6 5 4 3 3 3 3 3 3 2 2 1 3 1 2 1 2 2 2 2 1 3 6 8 7 6 6 6 5 5 5 5 5 4 4 4 4 5 4 3 6 10 11 11 11 11 11 11 11 11 11 10 9 9 8 8 7 7 6 6 5 5 5 5 5 5 4 4 4 4 4 5 5 5 6 5 6 6 6 6
5 5 6 5 5 5 4 4 4 4 3 3 2 2 3 3 1 2 3 1 1 2 2 1 3 3 3 5 7 9 7 6 6 5 5 5 5 5 5 5 5 7 4 4 3 3 8 11 11 12 12 12 11 11 11 11 11 10 9 9 10 9 8 7 6 6 6 6 5 5 5 4 4 4 4 4 5 4 4 4 5 5 5 4 5
5 5 5 5 5 5 4 4 4 4 3 3 3 2 2 2 1 1 3 2 2 2 1 2 2 1 3 6 6 8 7 6 5 5 5 6 5 6 6 5 5 5 5 5 4 4 3 8 11 11 10 10 10 10 10 11 11 10 10 10 9 8 7 7 7 6 6 6 6 5 5 5 5 5 5 5 5 3 3 3 3 3 3 4 5
5 6 6 5 5 5 5 4 4 4 3 3 2 2 3 2 3 1 1 2 1 1 2 1 0 1 4 5 6 6 5 5 5 6 5 6 7 6 4 4 4 3 4 4 4 4 4 3 3 3 4 10 10 11 10 10 10 11 11 10 10 9 9 9 7 6 7 6 5 5 5 5 5 5 5 4 3 2 1 3 3 4 4 5 6
6 6 6 6 5 5 5 4 4 4 4 3 3 4 4 3 3 3 2 1 0 1 0 3 3 3 3 4 5 6 6 6 6 6 6 6 5 5 5 4 4 4 4 4 4 3 4 4 4 4 2 5 10 10 10 10 9 10 10 10 9 9 9 8 8 8 7 6 6 5 5 4 4 3 3 2 1 1 1 2 3 3 4 4 4
6 6 6 6 6 5 5 5 4 5 5 5 4 4 4 5 4 2 3 1 0 2 1 3 4 2 3 3 5 3 6 5 7 6 6 6 5 5 4 4 4 5 4 4 4 4 4 4 4 3 4 2 4 8 10 9 9 8 9 9 9 9 8 8 8 8 7 6 6 5 4 4 3 3 3 3 2 1 0 1 2 3 3 3 3
6 6 6 6 6 5 5 5 5 5 4 3 3 3 3 4 4 2 0 2 2 2 3 2 1 3 3 1 3 2 3 5 5 5 6 4 5 5 4 4 4 4 4 4 4 4 4 3 3 3 3 4 3 0 3 5 5 7 8 8 9 9 8 8 7 7 7 6 6 5 4 3 3 4 3 3 2 1 1 1 1 1 2 2 3
7 7 7 6 6 6 6 5 5 5 4 4 3 4 4 4 4 5 2 0 1 1 3 2 2 2 2 3 0 3 1 2 1 4 5 4 4 4 5 5 6 4 4 4 4 4 4 4 4 4 4 4 4 2 2 3 3 7 8 7 8 8 7 7 7 7 7 7 7 5 5 5 5 4 4 4 3 2 2 1 1 1 1 3 3
9 8 7 7 6 6 6 5 6 5 6 5 4 4 3 3 3 4 3 2 1 2 2 3 3 5 2 2 3 3 1 3 5 5 5 6 6 5 5 6 5 4 4 5 5 4 4 4 4 3 3 3 4 4 4 3 7 9 10 7 6 6 7 8 7 6 7 7 6 6 6 6 5 5 5 5 4 4 3 2 1 0 1 2 3
9 9 8 8 6 6 6 6 6 5 5 6 5 6 5 5 5 4 4 4 3 2 2 2 3 4 6 3 2 1 3 3 3 3 2 4 6 7 5 6 6 6 6 5 3 4 5 4 4 4 4 4 3 4 4 4 5 5 7 9 8 5 7 9 7 8 8 8 7 7 7 6 6 6 6 5 5 4 4 3 2 0 1 2 2
8 9 8 7 7 6 5 6 6 6 6 6 5 4 5 5 6 6 5 3 4 3 3 1 3 3 4 4 5 3 2 2 4 3 1 2 5 6 6 7 6 6 5 5 5 6 5 5 4 5 5 5 5 4 5 5 4 5 5 6 10 7 6 6 8 9 9 8 8 8 8 7 7 6 6 6 6 5 4 3 3 2 2 2 3
9 8 8 7 7 6 6 6 6 6 5 5 5 6 6 6 5 5 6 5 3 3 5 5 0 2 3 2 1 1 4 6 3 3 3 2 2 3 5 6 7 7 7 6 6 6 5 5 6 6 6 5 5 5 5 5 6 6 9 10 11 8 8 9 10 10 10 9 9 9 8 8 8 8 7 7 6 6 5 5 4 3 3 4 4
9 8 8 8 7 7 6 6 6 5 5 6 6 6 6 5 6 6 5 5 5 5 5 4 6 4 2 1 1 2 2 0 5 7 5 4 2 1 1 2 5 6 7 7 7 7 7 6 6 6 5 5 5 5 6 5 5 5 6 11 11 10 10 10 11 11 10 9 9 9 9 9 8 8 8 7 7 7 6 6 6 6 6 5 6
8 9 8 8 7 7 6 6 6 6 5 5 5 5 7 6 6 5 6 6 5 4 4 6 5 6 3 1 1 1 2 0 3 4 5 4 3 3 3 1 2 4 5 5 6 6 7 8 7 6 6 6 6 6 5 6 6 5 6 12 12 12 11 10 10 12 11 10 10 9 9 9 9 9 9 9 8 8 7 8 7 7 7 7 7
7 7 8 8 8 7 7 7 7 7 6 6 5 5 6 6 7 7 6 6 5 5 6 6 6 4 5 5 3 1 2 1 2 3 2 3 7 6 5 7 6 6 5 6 6 6 6 6 7 6 6 6 6 6 6 6 6 6 7 13 13 13 12 11 11 13 12 11 10 11 10 10 10 10 10 10 9 9 9 8 9 9 9 8 8
7 7 8 8 8 8 7 7 6 6 6 6 6 6 6 6 6 6 6 7 6 6 4 4 6 4 4 5 6 6 5 4 4 2 3 2 2 3 3 6 8 5 6 6 6 7 6 6 7 7 7 7 7 6 7 7 7 8 12 14 13 12 12 12 11 13 12 11 12 12 12 12 12 12 11 11 11 10 10 10 10 10 10 9 9
7 7 7 8 8 8 7 7 7 7 7 7 6 6 6 5 6 6 6 6 5 5 4 5 5 5 5 5 6 5 4 3 5 6 6 5 6 5 5 3 1 3 1 4 4 6 7 7 7 7 8 7 7 7 7 7 8 13 11 15 15 15 14 14 14 13 13 13 12 12 13 13 12 12 12 12 11 11 11 11 10 10 10 10 9
8 8 8 9 8 8 8 8 8 8 8 7 7 7 6 6 6 7 6 7 6 6 6 6 6 6 6 5 5 4 5 3 4 5 3 4 6 4 4 2 5 3 2 4 5 5 6 7 7 7 7 7 7 7 7 7 7 11 14 10 16 16 16 16 16 15 15 14 14 13 12 11 10 10 9 9 10 11 11 11 11 11 10 10 10
10 10 9 9 8 9 9 9 8 7 7 8 7 7 6 6 6 7 7 7 6 6 6 5 5 5 4 6 5 6 5 4 4 5 5 4 3 4 4 0 1 4 1 4 2 4 5 6 6 6 6 7 7 7 7 8 8 12 16 10 13 16 17 17 17 16 17 16 16 15 14 14 11 11 10 10 9 10 10 10 11 11 12 11 10
10 9 8 9 9 8 9 9 8 8 7 7 7 7 6 6 6 7 6 6 6 6 6 6 6 5 4 6 6 5 5 5 5 5 5 6 6 5 6 3 1 1 2 3 3 7 8 6 7 6 7 7 7 8 8 8 10 13 16 11 9 16 17 18 17 17 17 17 16 16 16 16 14 14 13 12 11 12 12 11 11 11 11 10 9
8 7 8 9 9 9 9 9 8 8 8 8 7 7 6 7 6 6 7 5 6 7 6 6 6 6 5 4 4 6 5 5 5 6 6 6 6 5 5 6 6 3 0 3 4 7 5 4 4 7 8 8 8 8 9 10 9 12 15 9 8 10 17 18 18 17 17 17 17 16 16 16 16 15 15 13 13 12 11 11 10 10 11 11 9
8 8 9 9 9 9 9 9 8 8 8 8 8 7 7 7 7 7 8 6 6 8 6 7 6 6 5 5 6 6 5 4 4 5 5 5 6 6 7 7 7 6 4 5 7 7 6 7 5 7 9 9 8 7 8 9 9 11 9 9 9 8 13 18 18 17 17 17 17 17 16 16 16 16 15 15 14 13 12 11 10 10 11 10 9
9 8 9 10 9 9 8 8 8 8 9 8 8 9 8 7 7 8 8 7 7 6 7 7 7 6 6 5 5 6 5 5 6 5 5 6 6 6 7 6 7 8 6 7 8 6 5 4 7 5 6 9 8 7 7 9 12 13 9 9 9 9 14 17 18 18 17 17 17 17 16 16 16 15 15 14 14 13 13 12 11 11 12 11 10
9 9 9 10 9 9 9 8 8 9 8 9 9 8 8 8 7 7 7 8 8 8 7 7 7 7 7 7 6 6 5 6 5 5 4 5 6 6 6 6 7 7 8 6 4 6 6 7 7 5 6 10 9 9 8 8 10 13 10 9 9 12 15 13 18 18 18 18 17 17 16 17 16 15 15 14 14 14 14 13 13 12 12 11 10
9 10 10 10 10 10 9 9 9 9 9 9 9 9 9 9 8 8 8 9 9 9 8 7 7 7 8 8 8 8 7 5 6 6 6 5 5 6 6 6 7 7 7 7 8 9 5 7 6 6 6 8 9 9 10 8 8 14 9 9 10 13 10 8 14 18 18 18 17 17 17 17 16 15 15 14 14 14 14 14 13 13 12 11 10
9 9 10 11 11 11 10 10 10 10 10 10 9 8 9 9 9 9 8 9 10 9 8 9 8 8 9 9 9 9 7 7 7 6 6 6 4 6 6 7 7 7 7 7 8 9 5 3 4 5 4 5 6 9 10 9 8 8 9 8 8 8 8 8 9 15 18 18 18 18 18 17 16 16 15 15 15 15 14 13 13 13 12 11 10
10 11 11 10 10 11 11 11 11 11 11 11 10 9 10 10 10 8 9 10 10 10 8 10 10 9 9 10 10 9 8 9 8 8 7 6 6 6 6 7 7 8 8 8 8 7 10 3 4 4 2 4 6 5 11 10 10 7 9 9 7 8 8 8 8 9 17 19 18 18 18 17 16 16 16 16 17 16 15 14 13 13 12 12 10
10 11 11 11 11 11 11 11 11 11 12 11 11 11 11 12 12 11 10 11 11 11 11 11 11 10 10 10 11 10 7 8 9 9 7 7 7 7 8 6 7 8 8 8 7 8 8 8 5 5 5 3 7 7 8 8 9 9 10 10 10 8 8 8 8 8 13 18 19 19 18 18 17 16 17 17 17 16 15 14 13 13 13 12 12
11 11 11 12 11 11 12 12 12 12 12 12 12 12 13 13 12 12 11 11 11 12 13 12 11 11 12 11 12 11 9 10 10 9 8 7 8 8 8 7 7 8 7 7 8 8 7 8 5 8 5 5 6 5 5 6 8 8 9 9 8 9 9 8 9 8 11 17 18 19 18 18 17 17 17 17 17 16 15 14 13 13 13 13 13
12 11 11 11 11 12 12 14 14 13 14 13 13 13 12 12 13 12 12 12 12 12 13 13 12 13 13 13 13 11 10 11 10 9 9 10 10 9 9 8 8 7 6 7 8 6 7 9 7 4 4 5 5 5 6 7 6 6 5 7 8 9 9 9 8 9 11 15 17 18 17 17 17 18 18 17 17 16 15 15 14 14 14 14 13
12 12 12 11 12 13 14 14 14 14 13 13 14 14 14 13 12 12 12 12 12 12 13 13 13 13 13 14 13 11 11 12 12 11 10 11 10 10 10 9 8 7 7 6 6 7 8 10 7 7 4 6 5 5 5 7 7 7 7 7 5 7 7 7 8 7 6 6 6 8 11 13 16 18 18 17 17 17 16 15 15 15 14 14 14
14 13 13 14 13 13 14 14 14 14 14 13 13 13 13 13 13 13 12 12 12 12 12 13 13 13 13 13 12 12 12 13 13 12 12 12 10 12 11 11 9 7 8 8 7 8 9 9 8 7 8 6 6 8 5 6 7 8 9 8 9 8 6 9 9 7 6 7 9 13 12 11 13 12 15 17 17 18 17 16 15 15 14 14 14
15 15 14 15 14 13 13 13 14 13 13 12 13 13 13 13 13 13 13 13 13 13 12 13 13 13 13 12 12 12 13 13 14 13 12 12 10 11 11 10 9 9 9 8 7 8 9 9 10 10 8 8 6 5 1 3 6 7 9 10 12 10 9 8 9 9 7 7 8 7 9 11 12 14 14 14 15 16 16 14 15 14 15 14 14
13 14 14 14 13 13 13 13 14 13 12 12 12 12 13 14 13 14 14 14 13 13 13 13 13 12 12 12 12 12 13 16 18 16 15 14 10 11 11 10 10 10 10 8 9 8 9 9 10 8 7 7 9 8 8 8 12 15 7 7 9 8 7 8 9 8 7 8 8 7 8 8 9 8 8 7 9 13 14 15 11 14 15 14 14
14 14 13 13 14 14 14 15 14 12 12 11 14 20 18 14 14 13 12 13 13 13 13 13 12 12 12 12 12 17 17 18 18 19 18 18 18 14 12 11 12 11 11 11 10 10 9 10 12 11 10 12 11 11 12 13 11 5 5 8 11 9 4 8 7 8 8 8 7 9 9 7 8 8 7 8 8 9 8 8 9 10 13 15 15
15 14 13 15 15 15 16 15 15 13 12 12 19 19 20 21 15 12 12 12 12 13 12 12 12 12 12 13 12 14 16 16 17 20 20 21 20 21 20 18 15 14 12 13 12 11 11 12 12 10 12 14 14 12 12 12 9 11 11 8 10 6 9 9 12 6 6 9 9 9 9 7 7 8 7 8 8 7 7 9 14 16 16 16 16
14 13 15 16 16 15 14 15 15 14 14 16 19 19 20 20 18 14 12 11 11 12 12 12 12 12 13 13 12 11 11 14 15 15 18 21 22 22 22 21 20 20 19 16 14 12 12 12 13 13 13 14 14 11 12 11 12 10 10 9 10 10 10 11 11 12 4 10 10 9 11 3 5 7 7 8 7 7 9 12 16 16 16 15 15
12 14 16 16 15 15 14 15 16 15 14 17 18 19 20 20 21 18 12 13 12 12 12 13 12 12 11 11 12 11 11 17 16 14 14 15 19 22 22 22 21 20 20 23 22 17 12 13 14 15 15 14 14 14 13 14 10 10 9 10 10 10 11 12 13 11 5 10 10 9 10 6 7 8 9 8 7 6 8 11 15 16 16 16 16
13 15 15 16 15 15 15 15 15 14 15 16 19 20 20 21 22 19 14 14 13 13 13 13 12 13 13 12 12 12 12 12 12 14 14 14 14 14 15 15 15 18 21 24 25 24 19 15 14 16 16 13 15 15 13 10 10 12 11 13 12 12 12 15 16 14 4 8 11 8 7 7 7 7 10 9 6 6 7 10 15 15 16 16 15
14 15 15 16 15 15 15 15 14 14 14 18 19 21 20 21 22 19 15 13 12 12 12 12 13 14 13 13 13 14 13 12 12 14 14 15 14 13 14 15 16 16 17 18 18 16 16 16 17 18 17 14 16 17 11 8 13 13 13 15 15 15 14 10 8 6 4 7 8 7 11 7 6 8 10 8 6 7 7 9 14 15 16 15 14
12 12 12 13 15 15 15 15 14 15 14 17 18 20 22 21 21 14 13 14 13 13 12 12 13 12 12 13 13 14 14 13 15 18 17 14 13 14 15 16 15 15 17 19 21 20 18 17 17 19 18 17 16 14 12 10 9 10 10 9 6 5 6 9 13 9 9 6 10 10 8 7 6 10 9 6 6 7 7 6 10 16 16 15 14
14 14 14 14 14 15 15 14 15 15 13 15 18 20 21 21 14 11 12 12 13 14 14 13 12 12 12 13 13 13 13 14 16 17 18 17 14 16 16 16 15 15 17 15 17 21 22 23 24 25 25 23 19 17 16 17 14 11 8 9 12 8 10 13 13 9 10 7 8 10 8 8 6 9 7 5 8 8 7 7 6 10 15 15 15
15 15 13 13 13 13 14 15 15 15 13 12 17 18 19 19 18 14 12 12 13 13 13 13 11 11 13 19 17 15 15 15 17 18 18 16 15 17 16 16 16 18 19 13 7 12 19 21 23 24 24 23 22 19 16 16 18 14 12 16 14 10 14 13 14 11 9 7 8 9 7 12 5 6 6 1 3 4 6 6 6 7 10 12 16
14 13 12 12 13 12 13 14 16 15 12 10 15 17 19 20 18 12 11 11 12 13 12 13 12 11 12 14 19 18 16 17 19 18 18 16 15 16 16 15 19 20 20 7 11 12 9 10 14 16 17 20 18 17 18 21 19 19 17 18 13 13 15 14 13 8 8 9 7 11 11 8 7 7 8 4 5 4 4 7 7 7 7 7 8
Wind_Direction
167 179 171 182 184 178 176 178 181 201 193 203 181 217 239 222 204 205 212 217 214 201 193 193 194 194 174 166 173 183 171 157 153 150 151 158 167 171 169 171 172 172 173 174 174 173 175 175 174 173 168 164 161 161 161 158 159 160 160 160 163 162 159 156 155 154 152 159 167 177 172 159 71 240 265 271 286 304 312 310 314 318 320 326 325
174 175 171 175 179 179 176 184 191 205 192 219 216 200 217 220 203 199 211 244 214 215 182 193 186 183 173 165 174 191 170 150 146 148 147 151 172 177 171 173 174 173 174 178 179 180 180 182 183 182 180 177 175 174 173 171 170 170 170 170 170 171 166 164 169 173 170 163 176 194 192 218 246 256 267 285 289 295 307 311 314 319 321 325 322
174 175 178 169 178 180 197 186 209 212 199 222 224 214 208 190 187 194 208 214 236 231 200 186 142 153 179 173 170 169 167 145 142 138 155 169 172 179 175 173 176 176 177 181 180 183 189 188 189 191 189 188 186 185 182 181 180 179 179 180 179 181 179 180 186 194 192 183 188 204 212 223 250 252 263 277 291 301 305 312 320 321 326 324 322
172 174 173 171 182 190 195 186 216 223 208 218 224 226 209 214 203 164 202 233 288 316 344 52 270 136 187 176 159 163 176 161 151 153 158 166 175 177 182 173 176 179 181 185 189 186 190 191 196 196 193 196 196 192 191 189 190 191 189 190 190 188 190 193 201 206 210 209 228 230 225 237 250 261 277 288 296 300 308 311 312 315 318 324 324
178 175 172 175 179 185 196 208 213 214 214 206 206 179 157 155 65 63 274 170 357 342 8 355 341 145 183 161 154 165 180 154 152 154 159 162 176 174 181 176 174 181 184 190 194 193 194 193 194 200 197 198 203 201 198 197 197 197 199 200 195 196 199 204 211 217 216 219 224 229 236 248 257 259 270 274 278 285 290 296 303 315 316 311 317
166 173 166 173 182 184 193 209 208 202 179 166 162 165 164 130 159 111 256 45 5 340 3 338 333 36 120 137 157 175 166 153 151 155 150 156 175 180 179 177 172 174 181 192 197 195 201 197 198 200 203 201 203 203 206 202 205 200 205 203 208 206 212 216 219 225 230 236 245 251 257 256 261 261 269 279 281 285 294 297 302 302 298 305 306
167 162 170 174 178 186 192 203 195 186 147 153 153 168 133 159 138 144 304 4 14 323 2 326 327 16 113 152 175 155 144 143 145 152 152 158 167 180 177 179 179 170 175 183 196 200 205 202 202 202 206 205 206 205 208 206 209 208 209 207 208 212 216 211 219 217 221 234 238 251 255 258 267 267 266 265 264 275 278 287 300 307 312 319 318
163 159 163 173 174 178 195 192 169 162 152 146 147 140 138 132 101 145 176 292 360 318 337 312 281 279 96 131 177 149 151 147 156 157 159 150 167 182 184 179 180 175 173 177 187 197 205 206 205 207 208 208 209 210 210 211 208 208 213 210 214 214 218 207 219 219 225 232 232 240 242 246 246 260 271 277 273 276 289 302 308 310 317 323 333
163 162 159 171 174 176 185 190 160 167 152 168 153 158 147 126 166 181 162 208 247 280 292 360 336 20 23 97 149 150 151 158 159 159 148 159 173 184 182 189 185 183 166 176 185 193 204 209 208 212 212 212 212 213 211 213 210 210 211 212 217 212 212 212 213 223 229 227 229 231 237 244 249 252 266 277 278 283 297 307 308 318 329 351 353
165 166 164 171 178 172 180 185 168 167 151 153 170 153 125 132 127 216 174 145 202 217 288 323 33 20 49 88 117 141 147 154 151 154 155 165 177 188 194 190 181 176 172 177 182 184 194 212 212 216 215 217 218 218 217 214 214 211 213 211 214 214 215 214 205 216 224 232 235 229 240 238 242 251 261 272 287 296 315 317 342 352 11 1 360
170 174 166 174 173 176 177 181 175 165 155 153 160 160 169 165 160 152 92 158 185 206 239 253 79 94 78 88 115 134 138 144 152 154 167 180 181 185 182 201 180 163 173 176 176 177 182 190 200 222 224 220 222 221 222 222 219 217 215 213 213 209 206 218 217 224 228 226 227 236 241 240 248 258 266 271 292 284 9 17 13 20 25 21 21
173 178 170 170 171 181 181 175 180 159 160 175 183 175 171 166 178 163 159 86 26 68 62 101 70 98 98 79 118 140 152 159 157 166 172 185 185 170 187 190 169 159 166 171 170 177 180 183 195 201 209 232 231 229 228 227 227 224 224 223 221 218 215 217 219 221 228 224 231 232 241 249 248 249 257 263 217 123 39 37 29 20 20 26 22
180 177 173 171 174 181 177 179 178 169 170 189 193 176 168 158 165 147 149 171 262 85 300 98 99 63 25 63 86 139 159 152 165 169 187 186 177 174 182 169 171 174 174 165 179 179 182 184 191 188 191 199 242 241 235 235 228 229 231 229 227 223 223 224 223 220 222 224 222 214 214 227 226 200 215 183 157 126 82 47 35 21 35 31 34
179 185 179 172 171 180 180 181 179 181 182 177 178 150 139 138 147 102 100 160 216 157 203 110 52 144 130 19 46 65 166 152 168 185 196 183 176 170 165 168 184 186 167 167 178 180 180 180 183 186 187 191 214 360 231 236 247 234 234 234 229 226 222 226 227 221 219 218 209 200 197 190 211 198 179 159 147 153 110 97 52 64 44 33 25
181 182 183 185 177 175 187 183 186 178 165 172 171 151 161 161 161 150 199 289 213 208 199 146 171 112 109 96 232 125 78 70 275 207 198 180 173 179 171 175 189 180 174 170 182 175 171 184 187 190 188 187 189 172 174 172 217 227 234 240 234 224 220 221 222 212 212 206 197 185 188 197 185 177 161 159 168 160 157 129 124 62 32 26 16
183 183 185 189 179 179 183 183 192 180 170 175 179 169 160 159 156 172 140 179 251 267 207 191 132 130 124 158 199 118 98 230 182 209 195 175 182 190 185 184 178 165 163 190 194 170 183 181 191 200 199 192 183 175 174 161 212 218 218 224 232 222 214 216 208 195 207 187 170 178 184 178 171 171 168 169 170 165 163 167 140 164 8 6 8
184 185 185 188 187 179 179 187 185 183 170 180 176 183 178 175 170 164 186 169 202 251 281 200 186 166 132 100 52 62 212 225 146 224 153 170 200 194 197 187 175 173 183 200 184 177 178 190 192 190 191 196 195 186 181 186 208 202 206 208 209 212 217 215 192 202 199 186 179 179 181 179 176 175 175 175 168 174 177 174 173 236 288 333 346
185 187 187 183 189 186 177 177 185 179 181 184 178 171 173 174 184 177 196 187 160 176 245 231 218 193 169 167 162 171 189 219 106 212 149 202 192 199 193 197 176 178 185 189 186 190 182 196 192 194 193 194 194 194 188 196 206 187 183 204 197 206 213 187 193 201 194 187 183 184 183 182 182 184 183 184 184 185 187 186 200 215 270 284 299
188 187 187 186 185 188 182 183 185 185 182 169 174 182 182 189 181 180 202 189 139 167 196 211 50 294 229 205 178 124 144 129 189 102 173 289 126 173 202 197 184 183 187 195 192 188 194 192 198 198 196 191 189 194 192 196 198 181 188 198 186 199 180 185 198 197 191 188 186 185 185 186 190 195 192 199 198 199 207 207 215 235 246 255 266
185 188 186 185 185 190 187 184 186 190 183 184 189 187 179 188 182 189 193 199 185 175 199 189 168 231 207 207 263 111 137 100 150 159 162 174 243 331 98 191 196 196 195 192 189 190 189 196 203 200 194 190 189 189 190 190 182 184 193 195 187 193 184 191 198 195 193 191 189 190 191 194 198 203 205 210 213 213 214 226 234 237 247 259 267
190 185 186 185 187 190 186 185 187 192 189 192 196 184 181 182 187 182 193 206 197 191 164 198 180 202 146 262 173 68 64 105 132 107 143 156 227 182 167 105 181 232 218 210 201 190 190 196 200 192 189 186 190 192 192 188 184 186 196 195 189 192 190 195 198 196 194 194 192 195 199 201 204 210 212 217 222 227 227 229 237 242 247 256 264
195 190 185 187 189 188 187 190 192 190 191 196 191 189 188 188 189 191 194 196 203 182 190 187 193 205 184 169 169 101 80 76 75 91 64 123 168 200 178 172 185 226 198 207 204 199 199 196 196 189 194 187 192 191 191 194 190 186 198 194 191 193 194 198 201 200 199 200 198 200 204 207 210 214 216 221 227 235 240 243 244 248 254 260 268
191 194 191 188 191 190 190 193 191 191 195 195 197 193 192 192 197 194 195 196 197 196 191 185 184 195 193 174 186 166 176 170 184 175 141 146 92 191 204 198 191 193 217 199 200 201 202 197 194 194 199 194 193 192 194 198 198 195 191 192 192 194 196 201 203 206 204 205 208 209 213 217 220 221 225 229 234 241 245 245 248 252 257 260 264
195 191 194 192 189 194 194 188 191 191 197 196 199 200 189 189 195 197 199 200 188 186 171 184 185 187 190 194 194 171 172 165 182 158 152 183 159 183 189 196 272 229 250 185 218 208 209 206 205 197 202 198 196 195 197 192 201 202 195 195 191 194 197 201 206 210 211 211 214 218 221 225 227 230 234 238 243 248 250 252 254 257 260 264 267
199 198 199 192 189 191 194 194 193 195 194 192 200 200 191 186 192 198 198 193 190 185 178 194 184 172 199 207 185 170 192 203 151 155 147 137 154 150 226 161 187 212 222 160 199 218 216 218 206 201 200 202 197 197 201 197 201 203 196 204 197 196 197 201 206 208 213 215 215 219 223 230 235 238 242 246 251 254 256 258 261 264 266 269 271
194 201 197 192 194 196 196 199 194 189 191 193 195 198 193 191 188 192 198 200 185 181 190 194 194 194 182 191 206 189 200 182 180 138 144 133 150 171 175 204 137 197 229 181 199 165 248 234 225 209 207 202 199 198 200 202 205 206 197 195 204 202 201 203 207 209 212 214 216 217 220 224 226 230 232 238 241 248 252 257 261 265 268 268 268
198 200 191 193 198 195 196 196 193 190 188 191 193 195 195 193 188 194 197 194 197 183 186 185 196 203 196 198 201 201 203 191 167 192 156 176 175 174 154 162 353 61 181 220 213 208 206 216 206 211 211 206 201 200 202 206 207 204 199 196 204 208 207 206 207 211 213 216 218 220 221 223 225 228 229 230 233 240 247 249 253 258 261 263 264
198 188 195 194 196 197 197 200 194 191 190 190 189 192 195 192 193 190 199 190 194 199 197 186 202 204 208 211 197 211 201 199 189 189 187 184 186 169 168 160 159 223 303 213 234 244 224 222 237 218 208 209 209 203 206 205 209 206 200 196 204 211 212 211 211 211 213 216 220 222 225 227 228 230 232 231 231 234 239 242 246 251 256 259 258
194 192 193 198 198 194 197 199 195 194 193 192 191 191 190 193 193 192 198 193 190 200 195 192 208 201 208 213 209 215 216 207 211 200 199 192 195 188 181 175 170 162 190 215 231 223 244 205 214 231 206 211 212 209 207 211 212 201 202 201 204 210 214 213 214 215 215 218 220 223 225 227 229 231 233 234 233 232 232 234 238 245 251 253 250
192 193 192 197 199 196 196 198 196 194 196 196 194 194 188 194 195 196 197 186 193 198 200 194 200 200 203 214 219 220 219 201 212 209 191 197 197 197 196 190 170 183 181 191 238 211 234 232 214 226 204 213 211 213 209 216 214 203 203 203 205 212 215 213 214 216 218 219 221 224 226 228 229 230 231 232 232 231 231 231 230 235 241 243 241
190 191 191 196 197 200 198 199 194 195 197 198 196 196 194 197 195 197 194 188 190 196 202 195 201 193 203 210 215 224 216 208 214 220 208 186 203 203 210 185 191 188 179 174 220 262 185 214 230 220 197 209 205 210 215 220 215 207 205 206 210 214 215 217 216 217 219 220 222 225 227 229 230 229 229 229 230 228 228 226 225 226 229 230 229
192 189 191 194 197 198 199 199 199 198 198 201 196 197 195 202 196 195 196 191 194 197 200 202 199 198 204 211 213 217 222 212 218 220 226 213 199 203 205 197 199 193 175 180 205 244 214 209 223 232 207 206 206 205 217 221 219 212 208 209 213 214 217 223 223 221 220 221 223 225 228 230 230 230 230 230 229 229 226 223 219 219 221 221 218
189 189 193 196 196 198 198 200 201 200 201 202 199 196 196 203 201 199 193 194 198 201 196 202 206 201 205 212 217 218 214 216 221 219 221 224 208 214 211 197 201 191 179 189 210 245 280 227 221 234 223 188 213 211 212 215 215 217 217 217 212 210 214 217 221 222 222 223 224 226 229 230 230 229 230 230 230 229 226 219 217 216 218 218 215
194 196 195 195 197 196 199 201 202 203 203 204 201 196 200 203 205 201 197 194 201 203 196 203 204 206 206 211 219 219 210 217 221 221 216 218 213 215 218 203 203 197 194 179 213 212 244 275 263 263 274 183 221 200 207 208 217 209 214 216 218 216 217 214 218 224 220 222 225 227 229 229 228 228 228 230 230 230 229 225 217 216 216 216 212
200 201 200 198 195 196 201 202 203 205 205 204 202 201 204 204 205 206 202 198 200 202 201 206 204 204 208 212 217 215 210 216 223 227 218 216 213 214 220 213 212 206 197 197 181 215 229 245 217 242 234 212 207 220 216 219 214 203 207 213 214 218 223 216 217 222 219 218 222 226 228 228 227 225 226 228 229 229 229 224 216 214 214 213 208
201 205 203 202 199 198 202 204 204 207 206 206 203 204 205 205 207 207 206 205 205 205 206 206 205 203 209 212 216 210 209 215 222 223 224 219 215 216 220 219 219 217 204 202 208 204 212 234 237 209 222 210 236 233 221 219 211 207 212 217 215 220 221 221 220 222 219 216 221 223 226 226 225 223 224 226 227 227 226 220 213 212 211 210 206
204 203 204 201 202 203 206 207 207 208 208 205 205 207 208 207 208 208 208 208 209 211 211 210 205 205 209 212 215 206 203 212 222 223 220 221 222 217 220 219 217 221 213 206 213 209 213 226 244 223 212 225 229 224 199 201 228 232 225 220 215 218 222 222 223 226 223 213 217 220 222 222 222 222 222 223 225 225 223 218 212 211 211 209 207
206 205 203 202 202 206 209 210 208 210 208 206 206 207 207 207 208 210 210 210 212 213 215 216 212 210 211 214 215 205 203 208 217 219 221 223 222 223 224 222 219 212 215 218 209 213 219 234 229 253 227 219 239 237 206 200 208 223 235 237 243 234 223 230 231 229 224 212 213 223 226 226 226 224 221 221 223 223 222 217 212 211 210 209 207
207 206 205 205 207 206 210 210 211 210 209 207 208 208 208 207 208 209 210 212 214 215 218 218 218 216 216 217 215 208 206 210 215 216 217 221 221 225 224 226 221 211 218 218 211 213 220 232 239 233 242 232 211 235 231 204 215 211 214 225 242 232 221 220 230 229 226 226 220 212 210 210 216 219 222 222 222 222 221 217 212 209 208 207 207
210 209 207 206 209 209 210 210 214 212 210 209 209 209 209 208 207 209 210 212 214 217 220 220 219 219 219 220 220 215 212 212 215 219 215 218 218 225 224 222 221 216 222 222 218 219 224 230 234 236 228 237 241 247 223 178 225 248 224 211 226 225 226 223 223 218 222 221 227 223 227 226 228 227 228 225 226 225 223 220 215 211 209 207 207
211 212 211 209 209 212 214 214 215 213 210 210 209 208 207 209 208 210 210 212 214 217 220 222 221 221 221 221 224 223 219 219 217 219 217 214 211 219 224 217 220 217 224 225 224 221 229 232 242 239 237 233 233 226 222 213 212 225 205 203 236 230 219 228 236 224 214 208 221 219 217 204 213 217 213 217 221 217 222 214 215 212 211 209 208
211 211 211 211 211 211 213 216 217 214 213 213 211 207 204 206 208 211 211 214 215 217 219 221 225 223 223 222 224 224 223 222 222 223 225 222 220 219 218 211 215 215 219 223 224 222 224 229 234 232 232 237 231 222 226 227 228 225 188 199 223 227 192 240 257 233 212 206 212 223 225 202 202 217 208 217 225 201 211 201 212 207 209 208 208
211 210 211 213 213 212 212 215 216 216 215 216 211 205 206 207 206 209 212 216 216 219 219 220 222 223 226 225 227 224 223 225 226 224 223 224 224 225 226 218 210 208 213 219 225 218 218 226 231 228 231 237 235 227 226 231 223 216 218 205 220 203 209 219 240 246 197 196 218 225 237 210 191 217 219 223 218 202 204 208 208 208 208 204 207
210 209 213 215 215 214 214 216 218 217 219 216 208 205 205 206 206 209 212 216 217 218 219 219 221 222 225 226 226 226 223 222 224 226 227 227 226 227 228 227 222 216 214 213 218 220 217 225 228 226 227 231 236 226 229 223 227 221 221 212 213 212 218 223 232 235 203 181 207 215 240 197 188 217 226 226 220 208 208 208 206 207 208 207 205
207 210 215 215 217 215 214 216 220 218 221 215 207 203 203 204 206 209 214 214 217 219 218 219 221 222 224 226 229 227 229 223 223 226 226 230 231 232 232 232 231 225 224 226 224 222 215 223 229 233 223 229 234 233 220 220 214 220 217 222 220 220 221 225 230 235 223 187 191 215 234 213 171 210 227 229 216 213 218 212 209 205 206 207 208
211 215 216 217 219 217 215 217 220 221 222 215 203 203 202 203 205 205 218 216 218 221 220 220 222 223 223 224 227 230 228 224 223 224 227 229 229 230 235 236 235 234 232 231 230 229 225 225 227 235 234 217 231 234 225 209 201 216 213 223 218 223 224 227 227 227 208 154 189 195 236 220 184 197 223 229 202 216 218 213 207 207 207 208 210
211 214 214 216 219 219 218 218 221 223 224 213 201 201 202 203 205 201 217 219 222 224 224 222 223 224 225 226 229 233 231 228 225 221 224 227 229 231 233 234 232 233 230 231 231 230 228 231 233 237 242 229 232 237 230 202 213 217 213 219 215 217 226 243 265 246 205 188 184 174 229 215 172 198 224 214 196 213 212 217 207 208 209 209 208
215 217 219 219 221 222 220 218 221 227 227 209 199 200 202 204 200 201 214 221 225 227 227 225 225 226 226 227 230 234 235 233 230 221 220 224 230 233 235 237 238 236 237 232 228 226 228 230 233 238 242 238 233 236 229 215 218 223 231 239 243 231 230 236 239 228 229 198 194 192 223 222 184 195 223 198 179 212 213 211 207 207 208 207 203
211 212 215 216 220 222 221 218 222 228 228 210 198 200 202 200 189 207 212 220 227 230 231 228 228 227 228 228 229 235 236 237 231 220 218 215 230 233 235 239 239 241 244 238 227 230 233 235 238 241 246 250 246 241 233 218 215 210 216 227 229 196 214 231 238 226 233 193 209 204 214 232 193 196 209 195 190 206 207 210 205 208 210 207 203
211 214 214 218 221 222 221 221 221 226 227 210 195 199 198 193 191 203 210 216 226 229 234 234 231 231 229 228 228 232 236 239 232 223 216 206 227 234 237 240 244 244 247 238 231 232 230 235 241 245 248 252 253 253 246 232 221 205 208 224 220 194 223 225 233 224 230 209 206 189 203 230 167 188 189 186 175 230 205 205 197 204 209 211 205
212 212 212 216 219 220 221 223 223 223 226 209 188 192 194 192 195 209 208 217 225 229 230 235 234 235 235 231 229 231 236 239 235 228 217 204 225 232 235 239 244 247 247 225 232 237 231 231 241 242 248 248 248 246 244 236 227 219 219 228 219 209 223 224 226 223 237 235 193 172 206 222 164 205 165 138 216 258 205 195 190 188 188 191 197